This is the latest recevied weather packets stored in our database for station/object OE-11213. If no packets are shown the sender has not sent any weather packets the latest 10 day(s).
| Time | Temp. | Humidity | Pressure | Rain* | Wind** | Luminosity | Snow |
|---|---|---|---|---|---|---|---|
| 1787921730 | 29.44° C | 57% | 1010.8 hPa | 0 mm | - | 537 W/m² | - |
| 1787920903 | 29.44° C | 58% | 1010.8 hPa | 0 mm | - | 544 W/m² | - |
| 1787920530 | 29.44° C | 57% | 1010.8 hPa | 0 mm | - | 573 W/m² | - |
| 1787919930 | 28.89° C | 57% | 1011.1 hPa | 0 mm | - | 587 W/m² | - |
| 1787919103 | 28.89° C | 58% | 1010.9 hPa | 0 mm | - | 609 W/m² | - |
| 1787918730 | 28.89° C | 56% | 1011.2 hPa | 0 mm | - | 660 W/m² | - |
| 1787918130 | 27.78° C | 60% | 1011.3 hPa | 0 mm | - | 660 W/m² | - |
| 1787917303 | 27.78° C | 61% | 1011.5 hPa | 0 mm | - | 682 W/m² | - |
| 1787916930 | 27.22° C | 62% | 1011.6 hPa | 0 mm | - | 696 W/m² | - |
| 1787916330 | 26.67° C | 63% | 1012.1 hPa | 0 mm | - | 711 W/m² | - |
| 1787915503 | 26.67° C | 66% | 1012.1 hPa | 0 mm | - | 718 W/m² | - |
| 1787915130 | 26.11° C | 65% | 1012.4 hPa | 0 mm | - | 740 W/m² | - |
| 1787914530 | 26.11° C | 65% | 1012.6 hPa | 0 mm | - | 754 W/m² | - |
| 1787913703 | 26.11° C | 66% | 1012.6 hPa | 0 mm | - | 747 W/m² | - |
| 1787913330 | 25° C | 66% | 1012.8 hPa | 0 mm | - | 732 W/m² | - |
| 1787912730 | 25° C | 69% | 1013 hPa | 0 mm | - | 725 W/m² | - |
| 1787911903 | 25° C | 69% | 1013 hPa | 0 mm | - | 725 W/m² | - |
| 1787911530 | 25° C | 69% | 1013.4 hPa | 0 mm | - | 718 W/m² | - |
| 1787910930 | 24.44° C | 73% | 1013.8 hPa | 0 mm | - | 711 W/m² | - |
| 1787910103 | 23.89° C | 71% | 1014.1 hPa | 0 mm | - | 689 W/m² | - |
| 1787909730 | 23.89° C | 74% | 1014.2 hPa | 0 mm | - | 580 W/m² | - |
| 1787909130 | 23.33° C | 76% | 1014.6 hPa | 0 mm | - | 334 W/m² | - |
| 1787908302 | 22.78° C | 77% | 1015.1 hPa | 0 mm | - | 283 W/m² | - |
| 1787907930 | 22.78° C | 75% | 1014.8 hPa | 0 mm | - | 261 W/m² | - |
| 1787907330 | 22.78° C | 74% | 1014.9 hPa | 0 mm | - | 428 W/m² | - |
* Rain latest hour (hover to see other rain measurements)
** Current wind speed in m/s (hover to see current wind gust speed)